Location: Little Italy
(37.8008°N, 122.4108°W)
Time: 07:38:01
(UTC+00:00)

Cosmos 1400 Rocket - Pass Details

Date: 29 October 2020
Orbit: 521 x 568 km, 81.2° (Epoch: 02 December)

Event Time Altitude Azimuth Distance (km) Brightness Sun altitude
Rises 12:44:48 0° 355° (N) 2,689 6.3 -21.8°
Reaches altitude 10° 12:47:00 10° 0° (N) 1,786 5.4 -21.4°
Maximum altitude 12:50:52 56° 79° (E) 632 3.4 -20.6°
Drops below altitude 10° 12:54:39 10° 158° (SSE) 1,754 5.7 -19.9°
Sets 12:56:48 0° 163° (SSE) 2,634 6.6 -19.4°
